EW2975 Weather Reports


time (UTC)temp
F
wind
direction
speed
knots
gust
knots
rain 1hr
in
rain 24hr
in
rain mn
in
humidity
%
barometer
mb
20260506165405 62 92 5.2 10.4 0.00 0.03 0.03 85 1011.0
20260506165305 62 93 5.2 10.4 0.00 0.03 0.03 86 1011.0
20260506165205 62 95 5.2 10.4 0.00 0.03 0.03 87 1011.0
20260506165005 61 92 5.2 10.4 0.01 0.03 0.03 88 1010.8
20260506164705 60 90 5.2 10.4 0.01 0.03 0.03 87 1011.0
20260506164604 60 90 5.2 10.4 0.01 0.03 0.03 89 1011.1
20260506164505 60 86 5.2 9.6 0.01 0.03 0.03 89 1011.1
20260506164404 60 82 4.3 8.7 0.01 0.03 0.03 89 1011.0
20260506164306 60 76 4.3 8.7 0.01 0.03 0.03 87 1010.9
20260506164204 60 70 4.3 8.7 0.01 0.03 0.03 87 1010.6
20260506164105 60 65 4.3 9.6 0.01 0.03 0.03 87 1010.6
20260506164004 60 63 4.3 9.6 0.01 0.03 0.03 88 1010.6
20260506163804 60 57 4.3 9.6 0.01 0.03 0.03 89 1010.8
20260506163705 59 58 4.3 9.6 0.01 0.03 0.03 89 1010.9
20260506163604 59 59 5.2 11.3 0.01 0.03 0.03 89 1011.0
20260506163504 59 60 5.2 12.2 0.01 0.03 0.03 89 1010.9
20260506163405 59 60 5.2 12.2 0.01 0.03 0.03 89 1010.9
20260506163204 59 64 7.0 12.2 0.01 0.03 0.03 88 1011.0
20260506163105 59 68 7.0 15.6 0.01 0.03 0.03 89 1011.0
20260506163005 59 70 7.8 15.6 0.01 0.03 0.03 89 1011.0
20260506162904 59 73 7.8 15.6 0.01 0.03 0.03 88 1011.0
20260506162805 59 76 7.8 15.6 0.01 0.03 0.03 91 1010.7
20260506162505 59 75 7.8 15.6 0.01 0.03 0.03 92 1010.2
20260506162405 59 74 8.7 15.6 0.01 0.03 0.03 91 1010.3
20260506162306 58 73 7.8 15.6 0.01 0.03 0.03 91 1010.5
20260506162204 58 71 7.8 15.6 0.01 0.03 0.03 91 1010.7
20260506162104 58 71 7.0 13.9 0.01 0.03 0.03 91 1010.7
20260506161804 57 72 7.0 13.0 0.01 0.03 0.03 90 1010.6
20260506161705 57 68 7.0 13.0 0.01 0.03 0.03 90 1010.4
20260506161505 57 62 6.1 13.0 0.01 0.03 0.03 90 1010.8
20260506161404 57 60 6.1 13.0 0.01 0.03 0.03 90 1011.3
20260506161306 57 60 6.1 13.0 0.01 0.03 0.03 90 1011.9
20260506161205 57 60 6.1 13.0 0.01 0.03 0.03 90 1012.1
20260506161004 57 51 6.1 13.0 0.01 0.03 0.03 91 1011.4
20260506160905 57 47 6.1 13.0 0.01 0.03 0.03 91 1010.9
20260506160806 57 45 6.1 13.0 0.01 0.03 0.03 91 1010.7
20260506160704 57 43 6.1 13.0 0.01 0.03 0.03 90 1010.8
20260506160605 57 43 6.1 13.0 0.01 0.03 0.03 90 1011.0
20260506160504 57 41 5.2 13.0 0.01 0.03 0.03 90 1011.1
20260506160405 57 38 5.2 10.4 0.01 0.03 0.03 90 1011.4
20260506160304 57 37 4.3 10.4 0.01 0.03 0.03 91 1011.7
20260506160205 57 34 4.3 10.4 0.01 0.03 0.03 91 1011.9
20260506160104 57 35 4.3 10.4 0.01 0.03 0.03 91 1012.1
20260506160005 57 37 4.3 10.4 0.01 0.03 0.03 91 1012.1
20260506155904 57 39 3.5 10.4 0.01 0.03 0.03 91 1012.1
20260506155704 57 42 4.3 10.4 0.01 0.03 0.03 91 1012.3
20260506155605 57 43 4.3 10.4 0.01 0.03 0.03 91 1012.5
20260506155504 57 44 4.3 11.3 0.01 0.03 0.03 91 1012.9
20260506155404 57 45 3.5 11.3 0.01 0.03 0.03 91 1013.2
20260506155306 57 42 4.3 11.3 0.01 0.03 0.03 91 1013.4
20260506155204 57 37 4.3 11.3 0.00 0.02 0.02 91 1013.4
20260506155105 57 31 4.3 11.3 0.00 0.02 0.02 91 1013.2
20260506155004 57 25 4.3 11.3 0.00 0.02 0.02 91 1012.9
20260506154905 57 22 4.3 11.3 0.00 0.02 0.02 91 1012.6
20260506154804 57 19 4.3 11.3 0.00 0.02 0.02 91 1012.5
20260506154505 57 14 3.5 9.6 0.00 0.02 0.02 91 1012.6
20260506154404 57 13 3.5 9.6 0.00 0.02 0.02 91 1013.0
20260506154305 57 9 3.5 9.6 0.00 0.02 0.02 91 1013.3
20260506154205 57 8 2.6 8.7 0.00 0.02 0.02 91 1013.7
20260506154104 57 6 3.5 11.3 0.00 0.02 0.02 91 1014.0
20260506153904 57 7 4.3 11.3 0.00 0.02 0.02 91 1014.0
20260506153704 57 7 5.2 11.3 0.00 0.02 0.02 91 1013.8
20260506153505 57 9 5.2 11.3 0.00 0.02 0.02 91 1013.6
20260506153404 57 8 5.2 11.3 0.00 0.02 0.02 91 1013.5
20260506153305 57 8 6.1 13.9 0.00 0.02 0.02 91 1013.5
20260506153204 57 7 6.1 13.9 0.00 0.02 0.02 91 1013.4
20260506153105 57 6 6.1 15.6 0.00 0.02 0.02 91 1013.4
20260506153004 57 3 7.0 15.6 0.00 0.02 0.02 92 1013.3
20260506152906 57 3 7.0 15.6 0.00 0.02 0.02 92 1013.2
20260506152805 57 3 7.0 15.6 0.00 0.02 0.02 92 1013.0
20260506152705 57 1 7.0 15.6 0.00 0.02 0.02 92 1012.8
20260506152505 57 357 7.8 15.6 0.00 0.02 0.02 91 1012.4
20260506152404 57 356 7.8 15.6 0.00 0.02 0.02 91 1012.3
20260506152205 57 356 7.0 15.6 0.00 0.02 0.02 92 1012.3
20260506152104 58 356 7.0 13.9 0.00 0.02 0.02 92 1012.5
20260506152004 58 358 7.0 13.0 0.00 0.02 0.02 92 1012.7
20260506151905 58 357 7.0 13.0 0.00 0.02 0.02 92 1012.7
20260506151804 58 357 7.0 14.8 0.00 0.02 0.02 91 1012.8
20260506151705 58 358 7.0 14.8 0.00 0.02 0.02 91 1012.7
20260506151305 58 4 7.0 14.8 0.00 0.02 0.02 91 1012.7
20260506151004 58 359 7.0 14.8 0.00 0.02 0.02 91 1012.9
20260506150904 58 2 7.0 17.4 0.00 0.02 0.02 91 1012.8
20260506150805 58 3 6.1 17.4 0.00 0.02 0.02 91 1012.6
20260506150605 58 3 7.0 17.4 0.00 0.02 0.02 91 1012.5
20260506150504 58 1 7.0 17.4 0.00 0.02 0.02 91 1012.5
20260506150305 58 357 7.8 17.4 0.00 0.02 0.02 91 1012.4
20260506150205 58 356 8.7 18.2 0.00 0.02 0.02 91 1012.4
20260506150104 58 355 8.7 18.2 0.00 0.02 0.02 91 1012.3
20260506150004 58 356 8.7 18.2 0.00 0.02 0.02 91 1012.5
20260506145804 59 356 9.6 18.2 0.00 0.02 0.02 91 1012.5
20260506145705 59 355 9.6 18.2 0.00 0.02 0.02 91 1012.5
20260506145604 59 354 9.6 18.2 0.00 0.02 0.02 91 1012.5
20260506145505 59 355 9.6 18.2 0.00 0.02 0.02 91 1012.4
20260506145406 59 355 8.7 18.2 0.00 0.02 0.02 91 1012.4
20260506145306 59 356 8.7 18.2 0.00 0.02 0.02 91 1012.4
20260506145104 59 358 8.7 17.4 0.00 0.02 0.02 91 1012.2
20260506145004 59 359 7.8 17.4 0.00 0.02 0.02 91 1012.1
20260506144905 59 359 7.8 17.4 0.00 0.02 0.02 91 1012.0
20260506144804 59 2 7.8 16.5 0.00 0.02 0.02 90 1011.8
20260506144705 59 5 7.8 14.8 0.00 0.02 0.02 90 1011.6
20260506144604 59 6 7.8 14.8 0.00 0.02 0.02 90 1011.5
20260506144504 59 7 7.0 14.8 0.00 0.02 0.02 90 1011.5
20260506144404 59 7 7.0 14.8 0.00 0.02 0.02 90 1011.5
20260506144305 60 8 7.0 14.8 0.00 0.02 0.02 90 1011.5
20260506144204 60 7 7.0 14.8 0.00 0.02 0.02 90 1011.4
20260506144105 60 7 7.0 14.8 0.00 0.02 0.02 90 1011.3
20260506143904 60 6 7.0 14.8 0.00 0.02 0.02 90 1011.2
20260506143805 60 4 7.0 14.8 0.00 0.02 0.02 90 1011.3
20260506143705 60 4 7.0 14.8 0.00 0.02 0.02 90 1011.3
20260506143604 60 1 7.0 14.8 0.00 0.02 0.02 90 1011.4
20260506143505 60 1 7.0 14.8 0.00 0.02 0.02 90 1011.5
20260506143404 60 2 7.0 14.8 0.00 0.02 0.02 90 1011.6
20260506143204 60 4 7.0 13.9 0.00 0.02 0.02 90 1011.8
20260506143104 60 5 7.0 13.9 0.00 0.02 0.02 90 1011.8
20260506143005 60 4 7.8 13.9 0.00 0.02 0.02 90 1011.7
20260506142904 60 6 7.8 13.9 0.00 0.02 0.02 90 1011.7
20260506142805 60 7 7.0 13.9 0.00 0.02 0.02 90 1011.5
20260506142705 60 7 7.8 13.9 0.00 0.02 0.02 90 1011.6
20260506142605 60 8 7.8 13.9 0.00 0.02 0.02 90 1011.6
20260506142504 60 8 7.0 13.9 0.00 0.02 0.02 90 1011.5
20260506142405 60 9 7.0 13.9 0.00 0.02 0.02 90 1011.5
20260506142306 60 8 7.0 13.9 0.00 0.02 0.02 90 1011.4
20260506142204 60 8 6.1 13.9 0.00 0.02 0.02 90 1011.3
20260506142104 60 10 6.1 13.9 0.00 0.02 0.02 90 1011.3
20260506142004 60 10 6.1 13.9 0.00 0.02 0.02 90 1011.3
20260506141705 61 8 6.1 13.9 0.00 0.02 0.02 90 1011.2
20260506141604 61 6 6.1 13.9 0.01 0.02 0.02 90 1011.2
20260506141504 61 5 7.0 13.0 0.01 0.02 0.02 90 1011.2
20260506141404 61 5 7.0 15.6 0.01 0.02 0.02 90 1011.2
20260506141304 61 4 7.0 15.6 0.01 0.02 0.02 90 1011.3
20260506141104 61 4 7.8 15.6 0.01 0.02 0.02 90 1011.4
20260506141004 61 3 7.8 15.6 0.01 0.02 0.02 90 1011.4
20260506140904 61 4 7.8 15.6 0.01 0.02 0.02 90 1011.5
20260506140804 61 4 7.8 15.6 0.01 0.02 0.02 90 1011.5
20260506140705 61 3 7.8 15.6 0.01 0.02 0.02 89 1011.6
20260506140505 61 5 7.0 15.6 0.01 0.02 0.02 89 1011.5
20260506140404 61 4 7.0 13.0 0.01 0.02 0.02 89 1011.5
20260506140304 61 4 7.0 13.0 0.01 0.02 0.02 89 1011.3
20260506140104 62 4 6.1 13.0 0.01 0.02 0.02 90 1011.2
20260506140005 62 6 5.2 13.0 0.01 0.02 0.02 90 1011.1
20260506135904 62 7 5.2 13.0 0.01 0.02 0.02 90 1011.0
20260506135604 62 9 5.2 11.3 0.01 0.02 0.02 90 1010.8
20260506135404 62 10 5.2 11.3 0.01 0.02 0.02 90 1010.6
20260506135306 62 9 5.2 11.3 0.01 0.02 0.02 90 1010.5
20260506135204 62 9 5.2 11.3 0.01 0.02 0.02 90 1010.4
20260506135105 62 10 5.2 11.3 0.01 0.02 0.02 90 1010.4
20260506135004 62 9 5.2 11.3 0.01 0.02 0.02 90 1010.3
20260506134905 62 9 5.2 11.3 0.01 0.02 0.02 90 1010.3
20260506134804 62 8 5.2 11.3 0.01 0.02 0.02 90 1010.3
20260506134704 62 8 5.2 11.3 0.01 0.02 0.02 89 1010.2
20260506134604 62 10 5.2 11.3 0.01 0.02 0.02 90 1010.2
20260506134505 62 10 5.2 12.2 0.01 0.02 0.02 90 1010.1
20260506134404 62 6 5.2 12.2 0.01 0.02 0.02 90 1010.1
20260506134305 62 6 6.1 12.2 0.01 0.02 0.02 90 1010.0
20260506134204 62 5 6.1 12.2 0.01 0.02 0.02 90 1010.0
20260506134105 62 5 6.1 12.2 0.01 0.02 0.02 90 1010.0
20260506133905 62 7 6.1 13.9 0.01 0.02 0.02 89 1010.1
20260506133804 62 7 6.1 13.9 0.01 0.02 0.02 89 1010.2
20260506133705 62 7 7.0 13.9 0.01 0.02 0.02 90 1010.2
20260506133605 62 5 7.0 14.8 0.01 0.02 0.02 90 1010.2
20260506133505 62 6 7.0 14.8 0.01 0.02 0.02 90 1010.3
20260506133405 62 7 7.0 14.8 0.01 0.02 0.02 90 1010.3
20260506133305 62 8 6.1 14.8 0.01 0.02 0.02 90 1010.2
20260506133204 62 8 6.1 14.8 0.01 0.02 0.02 90 1010.2
20260506133105 62 8 6.1 14.8 0.01 0.02 0.02 90 1010.1
20260506133004 62 6 6.1 14.8 0.01 0.02 0.02 89 1010.1
20260506132905 62 6 6.1 14.8 0.01 0.02 0.02 89 1010.1
20260506132804 62 6 6.1 14.8 0.01 0.02 0.02 89 1010.1
20260506132705 63 6 6.1 14.8 0.01 0.02 0.02 89 1010.4
20260506132604 63 8 5.2 12.2 0.01 0.02 0.02 89 1010.2
20260506132505 63 7 5.2 12.2 0.01 0.02 0.02 89 1010.2
20260506132404 63 8 5.2 12.2 0.01 0.02 0.02 89 1010.3
20260506132307 63 8 5.2 12.2 0.01 0.02 0.02 89 1010.3
20260506132204 63 7 5.2 12.2 0.01 0.02 0.02 89 1010.3
20260506132104 63 9 5.2 12.2 0.01 0.02 0.02 89 1010.3
20260506132005 63 12 5.2 12.2 0.01 0.02 0.02 89 1010.3
20260506131904 63 9 5.2 12.2 0.01 0.02 0.02 89 1010.2
20260506131804 63 9 5.2 12.2 0.01 0.02 0.02 89 1010.2
20260506131706 63 9 5.2 12.2 0.01 0.02 0.02 89 1010.2
20260506131604 63 9 6.1 12.2 0.00 0.01 0.01 89 1010.2
20260506131504 63 10 6.1 12.2 0.00 0.01 0.01 88 1010.2
20260506131404 63 9 6.1 12.2 0.00 0.01 0.01 89 1010.2
20260506131305 63 9 6.1 12.2 0.00 0.01 0.01 89 1010.1
20260506131204 63 9 6.1 12.2 0.00 0.01 0.01 89 1010.1
20260506131104 63 9 6.1 12.2 0.00 0.01 0.01 89 1010.1
20260506131004 63 6 6.1 12.2 0.00 0.01 0.01 89 1010.0
20260506130904 63 6 6.1 12.2 0.00 0.01 0.01 89 1010.0
20260506130804 63 5 6.1 12.2 0.00 0.01 0.01 89 1010.0
20260506130604 63 5 6.1 13.0 0.00 0.01 0.01 89 1009.8
20260506130504 63 4 6.1 13.0 0.00 0.01 0.01 89 1009.8
20260506130404 63 4 6.1 13.0 0.00 0.01 0.01 89 1009.8
20260506130104 64 5 6.1 13.0 0.00 0.01 0.01 89 1009.7
20260506125904 64 8 6.1 13.0 0.00 0.01 0.01 89 1009.7
20260506125805 64 10 6.1 13.0 0.00 0.01 0.01 89 1009.7
20260506125705 64 10 6.1 13.0 0.00 0.01 0.01 89 1009.7
20260506125504 64 10 6.1 12.2 0.00 0.01 0.01 89 1009.7
20260506125404 64 8 6.1 12.2 0.00 0.01 0.01 89 1009.6
20260506125306 64 9 6.1 12.2 0.00 0.01 0.01 89 1009.6
20260506125205 64 11 6.1 12.2 0.00 0.01 0.01 89 1009.5
20260506125104 64 11 5.2 12.2 0.00 0.01 0.01 89 1009.4
20260506125005 64 11 5.2 12.2 0.00 0.01 0.01 89 1009.4
20260506124904 64 10 5.2 12.2 0.00 0.01 0.01 90 1009.4
20260506124804 64 10 6.1 12.2 0.00 0.01 0.01 90 1009.4
20260506124704 64 9 6.1 12.2 0.00 0.01 0.01 90 1009.4
20260506124604 64 7 6.1 12.2 0.00 0.01 0.01 90 1009.4
20260506124505 64 8 6.1 12.2 0.00 0.01 0.01 90 1009.4
20260506124404 64 8 6.1 12.2 0.00 0.01 0.01 90 1009.4
20260506124305 64 6 5.2 10.4 0.00 0.01 0.01 90 1009.3
20260506124204 64 5 5.2 10.4 0.00 0.01 0.01 90 1009.3
20260506124105 64 4 5.2 10.4 0.00 0.01 0.01 90 1009.3
20260506124004 64 3 5.2 10.4 0.00 0.01 0.01 90 1009.4
20260506123904 64 2 5.2 10.4 0.00 0.01 0.01 90 1009.3
20260506123804 64 359 5.2 10.4 0.00 0.01 0.01 91 1009.3
20260506123704 64 359 5.2 10.4 0.00 0.01 0.01 91 1009.3
20260506123404 64 354 5.2 10.4 0.00 0.01 0.01 90 1009.3
20260506123304 64 353 5.2 10.4 0.00 0.01 0.01 90 1009.3
20260506123204 64 352 5.2 10.4 0.00 0.01 0.01 91 1009.3
20260506123104 64 351 5.2 10.4 0.00 0.01 0.01 91 1009.2
20260506123004 65 350 5.2 10.4 0.00 0.01 0.01 90 1009.2
20260506122904 65 350 5.2 10.4 0.00 0.01 0.01 91 1009.2
20260506122804 65 350 5.2 9.6 0.00 0.01 0.01 91 1009.2
20260506122604 65 352 5.2 10.4 0.00 0.01 0.01 91 1009.2
20260506122306 65 353 5.2 10.4 0.00 0.01 0.01 91 1009.2
20260506122204 65 351 5.2 10.4 0.00 0.01 0.01 91 1009.1
20260506122104 65 347 5.2 10.4 0.00 0.01 0.01 91 1009.0
20260506122004 65 346 5.2 10.4 0.00 0.01 0.01 91 1009.1
20260506121804 65 343 5.2 10.4 0.00 0.01 0.01 91 1009.0
20260506121704 65 339 5.2 10.4 0.00 0.01 0.01 91 1009.0
20260506121604 65 336 5.2 10.4 0.00 0.01 0.01 91 1009.0
20260506121505 65 336 5.2 10.4 0.00 0.01 0.01 91 1009.0
20260506121404 65 336 4.3 10.4 0.00 0.01 0.01 91 1008.9
20260506121305 65 335 4.3 10.4 0.00 0.01 0.01 91 1008.9
20260506121104 65 337 4.3 9.6 0.00 0.01 0.01 91 1008.8
20260506121004 66 337 4.3 9.6 0.00 0.01 0.01 91 1008.8
20260506120704 66 342 4.3 9.6 0.00 0.01 0.01 91 1008.8
20260506120603 66 344 4.3 9.6 0.00 0.01 0.01 91 1008.8
20260506120504 66 344 4.3 9.6 0.00 0.01 0.01 92 1008.8
20260506120404 66 347 4.3 8.7 0.00 0.01 0.01 92 1008.7
20260506120304 66 349 4.3 8.7 0.00 0.01 0.01 92 1008.7
20260506120204 66 350 4.3 8.7 0.00 0.01 0.01 92 1008.7
20260506120104 66 354 4.3 8.7 0.00 0.01 0.01 92 1008.7
20260506120006 66 356 4.3 8.7 0.00 0.01 0.01 92 1008.7
20260506115904 66 357 4.3 8.7 0.00 0.01 0.01 91 1008.6
20260506115804 66 2 4.3 7.8 0.00 0.01 0.01 91 1008.7
20260506115705 66 2 4.3 7.8 0.00 0.01 0.01 91 1008.6
20260506115505 66 3 4.3 7.8 0.00 0.01 0.01 91 1008.6
20260506115404 66 4 4.3 7.8 0.00 0.01 0.01 91 1008.6
20260506115307 66 5 4.3 7.8 0.00 0.01 0.01 91 1008.6
20260506115204 66 7 4.3 7.8 0.00 0.01 0.01 91 1008.5
20260506114905 67 7 4.3 9.6 0.00 0.01 0.01 91 1008.5
20260506114804 67 6 4.3 9.6 0.00 0.01 0.01 91 1008.5
20260506114705 67 6 4.3 9.6 0.00 0.01 0.01 91 1008.5
20260506114604 67 6 4.3 9.6 0.00 0.01 0.01 91 1008.5
20260506114504 67 4 5.2 10.4 0.00 0.01 0.01 91 1008.5
20260506114405 68 4 4.3 10.4 0.00 0.01 0.01 91 1008.6
20260506114304 68 359 5.2 10.4 0.00 0.01 0.01 91 1008.6
20260506114204 68 355 5.2 10.4 0.00 0.01 0.01 91 1008.6
20260506114105 68 351 4.3 10.4 0.00 0.01 0.01 91 1008.6
20260506114005 68 349 4.3 10.4 0.00 0.01 0.01 91 1008.6
20260506113907 68 344 4.3 10.4 0.00 0.01 0.01 91 1008.6
20260506113804 68 340 5.2 10.4 0.00 0.01 0.01 91 1008.5
20260506113704 68 337 5.2 10.4 0.00 0.01 0.01 91 1008.5
20260506113604 69 334 5.2 10.4 0.00 0.01 0.01 91 1008.5
20260506113504 69 331 4.3 9.6 0.00 0.01 0.01 91 1008.6
20260506113404 69 327 4.3 9.6 0.00 0.01 0.01 90 1008.5
20260506113306 70 327 3.5 9.6 0.00 0.01 0.01 90 1008.5
20260506113204 70 326 2.6 9.6 0.00 0.01 0.01 90 1008.5
20260506113104 70 326 2.6 9.6 0.00 0.01 0.01 90 1008.5
20260506113004 71 325 1.7 9.6 0.00 0.01 0.01 90 1008.6
20260506112904 72 328 1.7 9.6 0.00 0.01 0.01 91 1008.7
20260506112804 72 327 1.7 9.6 0.00 0.01 0.01 91 1008.6
20260506112704 73 324 0.0 7.0 0.00 0.01 0.01 93 1008.6
20260506112603 73 326 0.0 6.1 0.01 0.01 0.01 93 1008.5
20260506112405 73 0 0.0 0.0 0.01 0.01 0.01 93 1008.5
20260506112306 73 0 0.0 0.0 0.01 0.01 0.01 93 1008.5
20260506112104 73 0 0.0 0.0 0.01 0.01 0.01 93 1008.5
20260506112005 73 0 0.0 0.0 0.01 0.01 0.01 93 1008.5
20260506111904 73 0 0.0 0.0 0.01 0.01 0.01 93 1008.5
20260506111704 73 0 0.0 0.0 0.01 0.01 0.01 93 1008.5
20260506111604 73 0 0.0 0.0 0.01 0.01 0.01 93 1008.5
20260506111504 73 0 0.0 0.0 0.01 0.01 0.01 93 1008.5
20260506111404 73 0 0.0 0.0 0.01 0.01 0.01 93 1008.4
20260506111305 73 0 0.0 0.0 0.01 0.01 0.01 93 1008.4
20260506111204 73 0 0.0 0.0 0.01 0.01 0.01 93 1008.4
20260506111004 73 0 0.0 0.0 0.01 0.01 0.01 93 1008.4
20260506110905 73 0 0.0 0.0 0.01 0.01 0.01 93 1008.4
20260506110604 73 0 0.0 0.0 0.01 0.01 0.01 93 1008.4
20260506110504 73 0 0.0 0.0 0.01 0.01 0.01 93 1008.4
20260506110404 73 0 0.0 0.0 0.01 0.01 0.01 93 1008.3
20260506110304 73 0 0.0 0.0 0.01 0.01 0.01 93 1008.3
20260506110204 73 0 0.0 0.0 0.01 0.01 0.01 93 1008.3
20260506110104 73 0 0.0 0.0 0.01 0.01 0.01 93 1008.3
20260506105905 73 0 0.0 0.0 0.01 0.01 0.01 93 1008.3
20260506105804 73 0 0.0 0.0 0.01 0.01 0.01 92 1008.3
20260506105705 73 0 0.0 0.0 0.01 0.01 0.01 92 1008.3
20260506105604 73 0 0.0 0.0 0.01 0.01 0.01 92 1008.3
20260506105505 73 0 0.0 0.0 0.01 0.01 0.01 92 1008.3
20260506105404 73 0 0.0 0.0 0.01 0.01 0.01 92 1008.3
20260506105305 73 0 0.0 0.0 0.01 0.01 0.01 92 1008.3
20260506105204 73 0 0.0 0.0 0.01 0.01 0.01 92 1008.3
20260506105104 73 0 0.0 0.0 0.01 0.01 0.01 92 1008.2
20260506105004 73 0 0.0 0.0 0.01 0.01 0.01 92 1008.3
20260506104804 73 0 0.0 0.0 0.01 0.01 0.01 92 1008.3
20260506104704 73 0 0.0 0.0 0.01 0.01 0.01 92 1008.3
20260506104604 73 0 0.0 0.0 0.01 0.01 0.01 92 1008.3
20260506104504 73 0 0.0 0.0 0.01 0.01 0.01 92 1008.2
20260506104304 73 0 0.0 0.0 0.01 0.01 0.01 92 1008.2
20260506104205 73 0 0.0 0.0 0.01 0.01 0.01 92 1008.2
20260506104004 73 0 0.0 0.0 0.01 0.01 0.01 92 1008.1
20260506103704 73 0 0.0 0.0 0.01 0.01 0.01 92 1008.1
20260506103604 73 0 0.0 0.0 0.01 0.01 0.01 92 1008.1
20260506103504 73 0 0.0 0.0 0.01 0.01 0.01 92 1008.1
20260506103403 73 0 0.0 0.0 0.01 0.01 0.01 92 1008.1
20260506103304 73 0 0.0 0.0 0.01 0.01 0.01 92 1008.1
20260506103204 73 0 0.0 0.0 0.01 0.01 0.01 92 1008.1
20260506103104 73 0 0.0 0.0 0.01 0.01 0.01 92 1008.1
20260506103004 73 0 0.0 0.0 0.01 0.01 0.01 92 1008.0
20260506102904 73 0 0.0 0.0 0.01 0.01 0.01 92 1008.1
20260506102705 73 0 0.0 0.0 0.01 0.01 0.01 92 1008.1
20260506102604 73 0 0.0 0.0 0.00 0.00 0.00 92 1008.1
20260506102504 73 0 0.0 0.0 0.00 0.00 0.00 92 1008.0
20260506102403 73 0 0.0 0.0 0.00 0.00 0.00 92 1008.0
20260506102103 73 0 0.0 0.0 0.00 0.00 0.00 92 1007.9
20260506102004 73 0 0.0 0.0 0.00 0.00 0.00 92 1007.9
20260506101905 73 0 0.0 0.0 0.00 0.00 0.00 91 1007.9
20260506101804 73 0 0.0 0.0 0.00 0.00 0.00 91 1007.9
20260506101704 74 0 0.0 0.0 0.00 0.00 0.00 91 1007.9
20260506101604 74 0 0.0 0.0 0.00 0.00 0.00 91 1007.9
20260506101504 74 0 0.0 0.0 0.00 0.00 0.00 91 1008.0
20260506101404 74 0 0.0 0.0 0.00 0.00 0.00 91 1007.9
20260506101203 74 0 0.0 0.0 0.00 0.00 0.00 91 1008.0
20260506101104 74 0 0.0 0.0 0.00 0.00 0.00 91 1007.9
20260506101004 74 0 0.0 0.0 0.00 0.00 0.00 91 1007.9
20260506100904 74 0 0.0 0.0 0.00 0.00 0.00 91 1007.9
20260506100804 74 0 0.0 0.0 0.00 0.00 0.00 91 1007.9
20260506100705 74 0 0.0 0.0 0.00 0.00 0.00 91 1007.9
20260506100604 74 0 0.0 0.0 0.00 0.00 0.00 91 1007.9
20260506100404 74 0 0.0 0.0 0.00 0.00 0.00 91 1007.9
20260506100305 74 0 0.0 0.0 0.00 0.00 0.00 91 1007.9
20260506100204 74 0 0.0 0.0 0.00 0.00 0.00 91 1007.8
20260506100104 74 0 0.0 0.0 0.00 0.00 0.00 91 1007.8
20260506095904 74 0 0.0 0.0 0.00 0.00 0.00 91 1007.7
20260506095804 74 0 0.0 0.0 0.00 0.00 0.00 91 1007.7
20260506095705 74 0 0.0 0.0 0.00 0.00 0.00 90 1007.7
20260506095504 74 0 0.0 0.0 0.00 0.00 0.00 90 1007.6
20260506095404 74 0 0.0 0.0 0.00 0.00 0.00 90 1007.7
20260506095306 74 0 0.0 0.0 0.00 0.00 0.00 90 1007.7
20260506095204 74 178 0.0 1.7 0.00 0.00 0.00 90 1007.7
20260506095104 74 178 0.0 1.7 0.00 0.00 0.00 90 1007.7
20260506095004 74 178 0.0 1.7 0.00 0.00 0.00 90 1007.7
20260506094905 74 178 0.9 1.7 0.00 0.00 0.00 90 1007.6
20260506094804 74 178 0.9 2.6 0.00 0.00 0.00 90 1007.6
20260506094703 74 178 0.9 2.6 0.00 0.00 0.00 90 1007.6
20260506094604 74 178 0.9 3.5 0.00 0.00 0.00 90 1007.6
20260506094404 74 188 1.7 4.3 0.00 0.00 0.00 89 1007.6
20260506094304 74 190 1.7 4.3 0.00 0.00 0.00 89 1007.5
20260506094203 74 192 1.7 4.3 0.00 0.00 0.00 89 1007.5
20260506094104 74 193 1.7 4.3 0.00 0.00 0.00 89 1007.5
20260506093904 74 197 2.6 4.3 0.00 0.00 0.00 89 1007.5
20260506093705 74 201 2.6 4.3 0.00 0.00 0.00 89 1007.5
20260506093604 74 203 2.6 6.1 0.00 0.00 0.00 89 1007.6
20260506093504 74 203 2.6 6.1 0.00 0.00 0.00 88 1007.5
20260506093404 74 202 2.6 6.1 0.00 0.00 0.00 88 1007.6
20260506093304 74 202 2.6 6.1 0.00 0.00 0.00 88 1007.6
20260506093204 74 203 2.6 6.1 0.00 0.00 0.00 88 1007.6
20260506093104 74 203 2.6 6.1 0.00 0.00 0.00 88 1007.6
20260506093004 74 201 2.6 6.1 0.00 0.00 0.00 88 1007.6
20260506092904 74 197 2.6 6.1 0.00 0.00 0.00 88 1007.5
20260506092804 74 194 2.6 6.1 0.00 0.00 0.00 88 1007.5
20260506092704 74 190 2.6 6.1 0.00 0.00 0.00 88 1007.5
20260506092605 74 188 2.6 5.2 0.00 0.00 0.00 88 1007.5
20260506092504 74 186 2.6 5.2 0.00 0.00 0.00 88 1007.5
20260506092404 74 183 2.6 5.2 0.00 0.00 0.00 88 1007.5
20260506092306 74 178 2.6 5.2 0.00 0.00 0.00 88 1007.5
20260506092204 74 173 2.6 5.2 0.00 0.00 0.00 88 1007.4
20260506092104 75 168 2.6 5.2 0.00 0.00 0.00 87 1007.5
20260506092004 74 166 2.6 5.2 0.00 0.00 0.00 87 1007.5
20260506091904 75 165 1.7 5.2 0.00 0.00 0.00 87 1007.4
20260506091704 75 164 1.7 3.5 0.00 0.00 0.00 87 1007.4
20260506091604 75 161 1.7 3.5 0.00 0.00 0.00 87 1007.4
20260506091504 75 157 1.7 3.5 0.00 0.00 0.00 87 1007.4
20260506091204 75 156 0.9 3.5 0.00 0.00 0.00 87 1007.3
20260506091104 75 158 0.9 2.6 0.00 0.00 0.00 87 1007.3
20260506091004 75 157 0.9 2.6 0.00 0.00 0.00 87 1007.3
20260506090904 75 156 1.7 2.6 0.00 0.00 0.00 87 1007.3
20260506090704 75 156 1.7 3.5 0.00 0.00 0.00 87 1007.3
20260506090505 75 158 1.7 3.5 0.00 0.00 0.00 87 1007.2
20260506090404 75 160 2.6 3.5 0.00 0.00 0.00 87 1007.2
20260506090305 75 166 2.6 4.3 0.00 0.00 0.00 87 1007.3
20260506090104 75 171 2.6 5.2 0.00 0.00 0.00 87 1007.3
20260506090004 75 169 2.6 6.1 0.00 0.00 0.00 87 1007.3
20260506085904 75 171 2.6 6.1 0.00 0.00 0.00 87 1007.3
20260506085803 75 174 2.6 6.1 0.00 0.00 0.00 86 1007.3
20260506085704 75 177 2.6 6.1 0.00 0.00 0.00 86 1007.3
20260506085604 75 178 3.5 6.1 0.00 0.00 0.00 86 1007.3
20260506085504 75 181 3.5 6.1 0.00 0.00 0.00 86 1007.3
20260506085404 75 179 3.5 6.1 0.00 0.00 0.00 86 1007.3
20260506085204 75 176 3.5 7.0 0.00 0.00 0.00 86 1007.3
20260506085104 75 176 3.5 7.0 0.00 0.00 0.00 86 1007.2
20260506084904 75 183 3.5 7.0 0.00 0.00 0.00 86 1007.2
20260506084704 75 177 3.5 7.0 0.00 0.00 0.00 86 1007.2
20260506084604 75 176 3.5 7.0 0.00 0.00 0.00 86 1007.2
20260506084504 75 175 3.5 7.0 0.00 0.00 0.00 86 1007.2
20260506084404 75 175 3.5 7.0 0.00 0.00 0.00 86 1007.2
20260506084304 75 176 3.5 7.8 0.00 0.00 0.00 86 1007.2
20260506084204 75 176 4.3 7.8 0.00 0.00 0.00 86 1007.3
20260506084104 75 176 4.3 8.7 0.00 0.00 0.00 86 1007.3
20260506083904 75 174 4.3 8.7 0.00 0.00 0.00 86 1007.2
20260506083703 75 175 5.2 8.7 0.00 0.00 0.00 86 1007.3
20260506083604 75 175 5.2 8.7 0.00 0.00 0.00 86 1007.3
20260506083505 75 176 5.2 8.7 0.00 0.00 0.00 86 1007.2
20260506083404 75 175 5.2 10.4 0.00 0.00 0.00 86 1007.3
20260506083104 75 176 6.1 10.4 0.00 0.00 0.00 86 1007.1
20260506083004 75 177 6.1 10.4 0.00 0.00 0.00 86 1007.1
20260506082905 75 178 6.1 10.4 0.00 0.00 0.00 86 1007.2
20260506082804 75 178 6.1 10.4 0.00 0.00 0.00 86 1007.2
20260506082705 75 179 6.1 10.4 0.00 0.00 0.00 86 1007.2
20260506082603 75 181 6.1 10.4 0.00 0.00 0.00 86 1007.3
20260506082404 75 183 6.1 10.4 0.00 0.00 0.00 86 1007.2
20260506082305 75 183 6.1 11.3 0.00 0.00 0.00 86 1007.2
20260506082204 75 184 6.1 11.3 0.00 0.00 0.00 86 1007.1
20260506082104 75 185 6.1 11.3 0.00 0.00 0.00 86 1007.1
20260506082004 75 184 6.1 11.3 0.00 0.00 0.00 86 1007.1
20260506081904 75 184 6.1 11.3 0.00 0.00 0.00 85 1007.1
20260506081804 75 184 6.1 11.3 0.00 0.00 0.00 85 1007.0
20260506081704 75 187 6.1 11.3 0.00 0.00 0.00 85 1007.1
20260506081604 75 188 6.1 11.3 0.00 0.00 0.00 85 1007.0
20260506081404 75 189 6.1 11.3 0.00 0.00 0.00 85 1007.0
20260506081204 75 192 5.2 10.4 0.00 0.00 0.00 85 1007.0
20260506081104 75 191 5.2 10.4 0.00 0.00 0.00 85 1007.0
20260506080904 75 195 5.2 10.4 0.00 0.00 0.00 85 1007.0
20260506080804 75 195 5.2 10.4 0.00 0.00 0.00 85 1007.1
20260506080704 75 194 5.2 9.6 0.00 0.00 0.00 85 1007.1
20260506080603 75 194 5.2 9.6 0.00 0.00 0.00 85 1007.1
20260506080504 75 193 5.2 9.6 0.00 0.00 0.00 85 1007.1
20260506080404 75 193 5.2 9.6 0.00 0.00 0.00 85 1007.2
20260506080304 75 191 5.2 9.6 0.00 0.00 0.00 85 1007.2
20260506080203 75 190 5.2 9.6 0.00 0.00 0.00 85 1007.2
20260506080104 75 189 5.2 9.6 0.00 0.00 0.00 85 1007.2
20260506073504 76 184 5.2 12.2 0.00 0.00 0.00 85 1007.4
20260506073404 76 185 5.2 12.2 0.00 0.00 0.00 85 1007.4
20260506073304 76 187 5.2 9.6 0.00 0.00 0.00 85 1007.4
20260506073204 76 190 5.2 9.6 0.00 0.00 0.00 85 1007.4
20260506073103 76 191 5.2 9.6 0.00 0.00 0.00 85 1007.5
20260506073004 76 190 4.3 9.6 0.00 0.00 0.00 85 1007.5
20260506072903 76 192 4.3 9.6 0.00 0.00 0.00 85 1007.5
20260506072804 76 192 4.3 9.6 0.00 0.00 0.00 85 1007.5
20260506072704 76 190 4.3 9.6 0.00 0.00 0.00 85 1007.5
20260506072604 76 188 3.5 9.6 0.00 0.00 0.00 85 1007.5
20260506072504 76 187 3.5 8.7 0.00 0.00 0.00 86 1007.5
20260506072203 75 178 2.6 7.8 0.00 0.00 0.00 86 1007.6
20260506072104 75 172 2.6 7.8 0.00 0.00 0.00 86 1007.6
20260506072003 75 168 1.7 7.8 0.00 0.00 0.00 86 1007.5
20260506071904 75 162 2.6 5.2 0.00 0.00 0.00 86 1007.6
20260506071803 75 160 2.6 6.1 0.00 0.00 0.00 86 1007.6
20260506071704 75 162 2.6 6.1 0.00 0.00 0.00 86 1007.6
20260506071604 75 163 2.6 6.1 0.00 0.00 0.00 86 1007.6
20260506071504 76 163 2.6 7.0 0.00 0.00 0.00 86 1007.6
20260506071403 76 164 2.6 7.0 0.00 0.00 0.00 86 1007.6
20260506071204 76 166 3.5 7.0 0.00 0.00 0.00 86 1007.6
20260506071104 75 168 3.5 7.0 0.00 0.00 0.00 86 1007.6
20260506071004 76 169 3.5 7.0 0.00 0.00 0.00 86 1007.6
20260506070903 75 170 3.5 7.0 0.00 0.00 0.00 86 1007.6
20260506070804 76 171 3.5 7.0 0.00 0.00 0.00 86 1007.6
20260506070704 76 170 3.5 7.0 0.00 0.00 0.00 86 1007.6
20260506070604 76 170 3.5 7.0 0.00 0.00 0.00 86 1007.6
20260506070504 75 169 3.5 7.0 0.00 0.00 0.00 86 1007.6
20260506070404 76 169 3.5 7.0 0.00 0.00 0.00 86 1007.6
20260506070303 76 169 3.5 7.0 0.00 0.00 0.00 86 1007.6
20260506070204 76 171 3.5 7.0 0.00 0.00 0.00 86 1007.6
20260506070104 76 170 3.5 7.0 0.00 0.00 0.00 86 1007.6
20260506062504 76 190 7.0 12.2 0.00 0.00 0.00 86 1007.2
20260506062403 76 190 7.0 12.2 0.00 0.00 0.00 86 1007.2
20260506062305 76 188 7.0 12.2 0.00 0.00 0.00 86 1007.2
20260506062204 76 187 7.0 12.2 0.00 0.00 0.00 86 1007.2
20260506062103 76 186 7.0 12.2 0.00 0.00 0.00 86 1007.2
20260506062004 76 185 7.0 12.2 0.00 0.00 0.00 86 1007.2
20260506061803 76 179 7.0 12.2 0.00 0.00 0.00 86 1007.2
20260506061704 76 178 7.0 12.2 0.00 0.00 0.00 86 1007.3
20260506061504 76 178 6.1 12.2 0.00 0.00 0.00 86 1007.3
20260506061403 76 178 6.1 11.3 0.00 0.00 0.00 86 1007.3
20260506061303 76 177 6.1 11.3 0.00 0.00 0.00 86 1007.4
20260506061204 76 178 6.1 10.4 0.00 0.00 0.00 86 1007.4
20260506061103 75 176 5.2 10.4 0.00 0.00 0.00 86 1007.4
20260506061004 75 175 5.2 10.4 0.00 0.00 0.00 86 1007.5
20260506060904 75 175 5.2 10.4 0.00 0.00 0.00 86 1007.4
20260506060804 75 177 5.2 10.4 0.00 0.00 0.00 87 1007.4
20260506060703 75 179 5.2 10.4 0.00 0.00 0.00 87 1007.4
20260506060604 75 179 6.1 10.4 0.00 0.00 0.00 87 1007.3
20260506060504 75 175 6.1 12.2 0.00 0.00 0.00 87 1007.3
20260506060404 75 175 6.1 12.2 0.00 0.00 0.00 87 1007.1
20260506060304 75 175 6.1 12.2 0.00 0.00 0.00 87 1007.1
20260506060104 75 176 6.1 12.2 0.00 0.00 0.00 87 1006.9
20260506051403 74 156 5.2 10.4 0.00 0.00 0.00 88 1006.8
20260506051204 75 156 5.2 10.4 0.00 0.00 0.00 88 1006.8
20260506051103 75 156 5.2 10.4 0.00 0.00 0.00 88 1006.9
20260506051004 75 157 5.2 10.4 0.00 0.00 0.00 88 1006.8
20260506050903 75 158 5.2 9.6 0.00 0.00 0.00 88 1006.9
20260506050804 75 157 5.2 9.6 0.00 0.00 0.00 87 1006.8
20260506050703 75 157 5.2 9.6 0.00 0.00 0.00 87 1006.8
20260506050604 75 156 5.2 9.6 0.00 0.00 0.00 87 1006.7
20260506050503 75 156 5.2 10.4 0.00 0.00 0.00 87 1006.8
20260506050404 75 156 5.2 10.4 0.00 0.00 0.00 87 1006.7
20260506050203 75 157 5.2 10.4 0.00 0.00 0.00 87 1006.7
20260506050103 75 158 5.2 10.4 0.00 0.00 0.00 87 1006.8
20260506045103 75 163 7.0 11.3 0.00 0.00 0.00 87 1006.7
20260506045004 75 160 6.1 11.3 0.00 0.00 0.00 87 1006.7
20260506044903 75 160 6.1 11.3 0.00 0.00 0.00 87 1006.7
20260506044804 75 160 6.1 11.3 0.00 0.00 0.00 87 1006.7
20260506044703 75 159 6.1 11.3 0.00 0.00 0.00 87 1006.7
20260506044604 75 159 6.1 10.4 0.00 0.00 0.00 87 1006.6
20260506044404 75 158 6.1 10.4 0.00 0.00 0.00 87 1006.6
20260506044304 75 158 6.1 10.4 0.00 0.00 0.00 87 1006.6
20260506044204 75 158 6.1 10.4 0.00 0.00 0.00 87 1006.6
20260506044103 75 159 6.1 10.4 0.00 0.00 0.00 87 1006.6
20260506044003 75 159 6.1 10.4 0.00 0.00 0.00 87 1006.6
20260506043803 75 157 6.1 10.4 0.00 0.00 0.00 86 1006.6
20260506043704 75 157 6.1 10.4 0.00 0.00 0.00 86 1006.6
20260506043603 75 156 6.1 10.4 0.00 0.00 0.00 86 1006.6
20260506043404 75 156 6.1 10.4 0.00 0.00 0.00 86 1006.6
20260506043303 75 157 6.1 10.4 0.00 0.00 0.00 86 1006.6
20260506043204 75 158 6.1 10.4 0.00 0.00 0.00 86 1006.7
20260506043103 75 156 6.1 10.4 0.00 0.00 0.00 86 1006.7
20260506043004 75 156 5.2 10.4 0.00 0.00 0.00 86 1006.7
20260506042903 75 156 5.2 10.4 0.00 0.00 0.00 86 1006.7
20260506042805 75 157 5.2 9.6 0.00 0.00 0.00 86 1006.7
20260506042703 75 158 5.2 9.6 0.00 0.00 0.00 86 1006.7
20260506042604 75 158 5.2 9.6 0.00 0.00 0.00 86 1006.7
20260506042504 75 158 5.2 9.6 0.00 0.00 0.00 86 1006.8
20260506042404 75 158 5.2 9.6 0.00 0.00 0.00 86 1006.8
20260506042305 75 159 5.2 9.6 0.00 0.00 0.00 86 1006.8
20260506042203 76 158 5.2 9.6 0.00 0.00 0.00 86 1006.7
20260506042103 76 158 5.2 9.6 0.00 0.00 0.00 86 1006.8
20260506042006 75 158 5.2 10.4 0.00 0.00 0.00 86 1006.7
20260506041906 76 159 5.2 10.4 0.00 0.00 0.00 86 1006.8
20260506041805 76 160 6.1 10.4 0.00 0.00 0.00 86 1006.8
20260506041606 76 160 5.2 10.4 0.00 0.00 0.00 85 1006.8
20260506041506 76 160 5.2 10.4 0.00 0.00 0.00 85 1006.7
20260506041405 76 160 6.1 10.4 0.00 0.00 0.00 85 1006.7
20260506041306 76 160 6.1 10.4 0.00 0.00 0.00 85 1006.7
20260506041205 76 160 6.1 10.4 0.00 0.00 0.00 85 1006.7
20260506041106 76 162 5.2 10.4 0.00 0.00 0.00 85 1006.7
20260506041006 76 164 5.2 10.4 0.00 0.00 0.00 85 1006.7
20260506040906 76 164 5.2 10.4 0.00 0.00 0.00 85 1006.7
20260506040606 76 163 5.2 10.4 0.00 0.00 0.00 85 1006.7
20260506040506 76 163 5.2 10.4 0.00 0.00 0.00 85 1006.7
20260506040406 76 163 5.2 10.4 0.00 0.00 0.00 85 1006.6
20260506040305 76 163 5.2 9.6 0.00 0.00 0.00 85 1006.6
20260506040206 76 163 5.2 9.6 0.00 0.00 0.00 85 1006.6
20260506040106 76 162 5.2 9.6 0.00 0.00 0.00 85 1006.6
20260506040006 76 162 5.2 11.3 0.00 0.00 0.00 85 1006.6
20260506035806 76 161 6.1 11.3 0.00 0.00 0.00 85 1006.5
20260506035706 76 160 5.2 11.3 0.00 0.00 0.00 84 1006.5
20260506035606 76 159 6.1 11.3 0.00 0.00 0.00 84 1006.5
20260506035506 76 159 6.1 12.2 0.00 0.00 0.00 84 1006.5
20260506035405 76 159 7.0 12.2 0.00 0.00 0.00 84 1006.5
20260506035306 76 159 7.0 12.2 0.00 0.00 0.00 84 1006.4
20260506035206 76 158 6.1 12.2 0.00 0.00 0.00 84 1006.5
20260506035105 76 158 6.1 12.2 0.00 0.00 0.00 84 1006.5
20260506035006 76 157 6.1 12.2 0.00 0.00 0.00 84 1006.5
20260506034905 76 157 6.1 12.2 0.00 0.00 0.00 84 1006.4
20260506034806 76 155 6.1 12.2 0.00 0.00 0.00 83 1006.5
20260506034606 76 156 6.1 12.2 0.00 0.00 0.00 83 1006.4
20260506034405 76 154 5.2 10.4 0.00 0.00 0.00 83 1006.4
20260506034306 76 154 5.2 10.4 0.00 0.00 0.00 83 1006.4
20260506034206 76 154 5.2 10.4 0.00 0.00 0.00 83 1006.4
20260506034105 76 153 5.2 10.4 0.00 0.00 0.00 83 1006.4
20260506034006 76 153 5.2 10.4 0.00 0.00 0.00 83 1006.4
20260506033906 76 153 5.2 10.4 0.00 0.00 0.00 83 1006.4
20260506033806 76 154 5.2 10.4 0.00 0.00 0.00 82 1006.5
20260506033707 76 154 4.3 9.6 0.00 0.00 0.00 82 1006.4
20260506033605 76 153 5.2 9.6 0.00 0.00 0.00 82 1006.3
20260506033506 76 155 5.2 9.6 0.00 0.00 0.00 82 1006.3
20260506033406 77 157 5.2 9.6 0.00 0.00 0.00 82 1006.3
20260506033306 77 157 5.2 9.6 0.00 0.00 0.00 82 1006.2
20260506033206 77 160 5.2 10.4 0.00 0.00 0.00 81 1006.2
20260506033105 77 160 6.1 10.4 0.00 0.00 0.00 81 1006.3
20260506033006 77 162 6.1 10.4 0.00 0.00 0.00 81 1006.3
20260506032705 77 167 6.1 10.4 0.00 0.00 0.00 81 1006.3
20260506032606 77 167 6.1 10.4 0.00 0.00 0.00 81 1006.3
20260506032506 77 167 6.1 10.4 0.00 0.00 0.00 81 1006.3
20260506032406 77 168 6.1 10.4 0.00 0.00 0.00 82 1006.3
20260506032307 77 168 6.1 10.4 0.00 0.00 0.00 82 1006.3
20260506032206 77 168 6.1 8.7 0.00 0.00 0.00 82 1006.3
20260506032105 77 169 6.1 9.6 0.00 0.00 0.00 82 1006.3
20260506032006 77 170 6.1 9.6 0.00 0.00 0.00 82 1006.3
20260506031905 77 168 6.1 9.6 0.00 0.00 0.00 82 1006.2
20260506031806 77 167 5.2 9.6 0.00 0.00 0.00 82 1006.2
20260506031705 77 167 5.2 9.6 0.00 0.00 0.00 82 1006.1
20260506031606 77 167 5.2 9.6 0.00 0.00 0.00 82 1006.1
20260506031505 77 167 5.2 9.6 0.00 0.00 0.00 82 1006.2
20260506031406 76 166 4.3 9.6 0.00 0.00 0.00 82 1006.2
20260506031206 76 165 4.3 9.6 0.00 0.00 0.00 82 1006.2
20260506031105 76 163 3.5 9.6 0.00 0.00 0.00 82 1006.3
20260506031006 76 162 3.5 9.6 0.00 0.00 0.00 82 1006.2
20260506030905 76 162 3.5 7.0 0.00 0.00 0.00 82 1006.2
20260506030805 76 162 3.5 7.0 0.00 0.00 0.00 82 1006.2
20260506030706 76 160 3.5 7.0 0.00 0.00 0.00 82 1006.2
20260506030505 76 158 2.6 7.0 0.00 0.00 0.00 82 1006.2
20260506030407 76 156 2.6 7.0 0.00 0.00 0.00 82 1006.1
20260506030306 76 154 2.6 7.0 0.00 0.00 0.00 82 1006.0
20260506030205 76 153 2.6 7.8 0.00 0.00 0.00 82 1006.1
20260506030105 76 152 3.5 7.8 0.00 0.00 0.00 82 1006.0
20260506030006 76 152 3.5 7.8 0.00 0.00 0.00 82 1005.9
20260506025905 76 151 3.5 7.8 0.00 0.00 0.00 82 1005.9
20260506025806 76 151 3.5 7.8 0.00 0.00 0.00 82 1005.8
20260506025705 76 151 3.5 7.8 0.00 0.00 0.00 82 1005.8
20260506025606 76 153 3.5 7.8 0.00 0.00 0.00 82 1005.8
20260506025505 76 153 3.5 7.8 0.00 0.00 0.00 82 1005.8
20260506025406 76 155 3.5 7.8 0.00 0.00 0.00 82 1005.7
20260506025306 76 157 3.5 7.8 0.00 0.00 0.00 82 1005.7
20260506025206 76 158 3.5 7.8 0.00 0.00 0.00 81 1005.7
20260506025105 77 160 3.5 7.8 0.00 0.00 0.00 81 1005.7
20260506025005 77 161 3.5 7.8 0.00 0.00 0.00 81 1005.7
20260506024906 77 162 3.5 7.8 0.00 0.00 0.00 81 1005.6
20260506024805 77 163 3.5 7.8 0.00 0.00 0.00 81 1005.7
20260506024706 77 163 3.5 7.8 0.00 0.00 0.00 81 1005.7
20260506024605 77 163 3.5 7.8 0.00 0.00 0.00 81 1005.6
20260506024506 77 163 3.5 7.8 0.00 0.00 0.00 81 1005.6
20260506024406 77 163 3.5 7.8 0.00 0.00 0.00 81 1005.6
20260506024305 77 163 3.5 7.0 0.00 0.00 0.00 81 1005.6
20260506024206 77 162 3.5 7.0 0.00 0.00 0.00 81 1005.6
20260506024106 77 161 3.5 7.0 0.00 0.00 0.00 81 1005.6
20260506024005 77 161 3.5 7.0 0.00 0.00 0.00 81 1005.6
20260506023806 77 162 3.5 7.0 0.00 0.00 0.00 81 1005.5
20260506023706 77 162 3.5 7.0 0.00 0.00 0.00 81 1005.5
20260506023606 77 162 3.5 7.0 0.00 0.00 0.00 81 1005.5
20260506023505 77 162 3.5 7.0 0.00 0.00 0.00 81 1005.5
20260506023406 77 162 3.5 7.0 0.00 0.00 0.00 81 1005.5
20260506023305 77 161 3.5 7.0 0.00 0.00 0.00 81 1005.5
20260506023206 77 160 3.5 6.1 0.00 0.00 0.00 81 1005.6
20260506023105 77 160 3.5 6.1 0.00 0.00 0.00 81 1005.5
20260506022906 77 158 3.5 6.1 0.00 0.00 0.00 81 1005.5
20260506022805 77 158 3.5 6.1 0.00 0.00 0.00 81 1005.5
20260506022705 77 158 3.5 6.1 0.00 0.00 0.00 81 1005.5
20260506022607 77 157 3.5 6.1 0.00 0.00 0.00 81 1005.4
20260506022505 77 156 3.5 6.1 0.00 0.00 0.00 81 1005.4
20260506022406 77 156 3.5 6.1 0.00 0.00 0.00 81 1005.4
20260506022306 77 157 3.5 6.1 0.00 0.00 0.00 81 1005.4
20260506022106 77 158 3.5 6.1 0.00 0.00 0.00 81 1005.4
20260506022005 77 159 3.5 6.1 0.00 0.00 0.00 81 1005.4
20260506021906 77 158 2.6 6.1 0.00 0.00 0.00 81 1005.4
20260506021806 77 156 2.6 6.1 0.00 0.00 0.00 81 1005.4
20260506021705 77 157 2.6 6.1 0.00 0.00 0.00 81 1005.3
20260506021608 77 157 2.6 6.1 0.00 0.00 0.00 81 1005.4
20260506021405 77 157 3.5 6.1 0.00 0.00 0.00 81 1005.3
20260506021306 77 156 2.6 6.1 0.00 0.00 0.00 81 1005.3
20260506021205 77 156 2.6 6.1 0.00 0.00 0.00 81 1005.3
20260506021105 77 155 3.5 6.1 0.00 0.00 0.00 81 1005.3
20260506021005 77 154 3.5 6.1 0.00 0.00 0.00 81 1005.4
20260506020906 77 155 2.6 6.1 0.00 0.00 0.00 80 1005.4
20260506020805 77 154 2.6 6.1 0.00 0.00 0.00 80 1005.4
20260506020706 77 153 2.6 6.1 0.00 0.00 0.00 80 1005.4
20260506020605 77 153 2.6 6.1 0.00 0.00 0.00 80 1005.3
20260506020505 77 152 3.5 6.1 0.00 0.00 0.00 80 1005.3
20260506020406 77 153 3.5 7.0 0.00 0.00 0.00 80 1005.2
20260506020105 77 155 3.5 7.0 0.00 0.00 0.00 80 1005.2
20260506015906 77 156 3.5 7.8 0.00 0.00 0.00 80 1005.2
20260506015805 77 156 3.5 7.8 0.00 0.00 0.00 80 1005.2
20260506015605 78 158 3.5 7.8 0.00 0.00 0.00 80 1005.1
20260506015505 78 159 3.5 7.8 0.00 0.00 0.00 80 1005.1
20260506015406 78 159 3.5 7.8 0.00 0.00 0.00 80 1005.0
20260506015306 78 159 4.3 7.8 0.00 0.00 0.00 79 1005.0
20260506015206 78 160 4.3 7.8 0.00 0.00 0.00 79 1005.0
20260506015105 78 160 4.3 7.8 0.00 0.00 0.00 79 1005.0
20260506015006 78 160 4.3 7.8 0.00 0.00 0.00 79 1005.1
20260506014805 78 159 4.3 7.8 0.00 0.00 0.00 79 1005.0
20260506014705 78 158 4.3 7.8 0.00 0.00 0.00 79 1004.9
20260506014505 78 156 4.3 7.8 0.00 0.00 0.00 79 1004.9
20260506014405 78 155 4.3 7.8 0.00 0.00 0.00 79 1004.9
20260506014305 78 154 4.3 7.8 0.00 0.00 0.00 79 1004.9
20260506014206 78 152 3.5 7.8 0.00 0.00 0.00 79 1004.8
20260506014105 78 151 3.5 7.8 0.00 0.00 0.00 79 1004.8
20260506014006 78 152 3.5 7.8 0.00 0.00 0.00 79 1004.8
20260506013805 78 151 3.5 7.8 0.00 0.00 0.00 79 1004.8
20260506013706 78 150 3.5 7.8 0.00 0.00 0.00 79 1004.8
20260506013606 78 150 3.5 7.8 0.00 0.00 0.00 79 1004.7
20260506013506 78 150 3.5 7.0 0.00 0.00 0.00 79 1004.7
20260506013405 78 150 3.5 7.0 0.00 0.00 0.00 79 1004.7
20260506013305 78 149 3.5 7.0 0.00 0.00 0.00 78 1004.8
20260506013206 78 149 3.5 7.0 0.00 0.00 0.00 78 1004.8
20260506013105 78 149 3.5 7.0 0.00 0.00 0.00 78 1004.7
20260506013006 78 147 3.5 7.0 0.00 0.00 0.00 78 1004.7
20260506012806 78 147 3.5 7.8 0.00 0.00 0.00 78 1004.7
20260506012605 79 147 3.5 7.8 0.00 0.00 0.00 78 1004.7
20260506012506 79 147 3.5 7.8 0.00 0.00 0.00 78 1004.7
20260506012405 79 147 3.5 7.8 0.00 0.00 0.00 78 1004.7
20260506012308 79 148 3.5 7.8 0.00 0.00 0.00 78 1004.6
20260506012205 79 149 3.5 7.8 0.00 0.00 0.00 77 1004.6
20260506012105 79 149 3.5 7.8 0.00 0.00 0.00 77 1004.6
20260506012005 79 149 3.5 7.8 0.00 0.00 0.00 77 1004.6
20260506011906 79 149 3.5 7.8 0.00 0.00 0.00 77 1004.6
20260506011805 79 150 3.5 7.0 0.00 0.00 0.00 77 1004.7
20260506011706 79 149 2.6 7.0 0.00 0.00 0.00 77 1004.7
20260506011605 79 149 2.6 6.1 0.00 0.00 0.00 77 1004.7
20260506011505 79 149 2.6 6.1 0.00 0.00 0.00 77 1004.7
20260506011405 79 149 2.6 6.1 0.00 0.00 0.00 77 1004.8
20260506011306 79 149 2.6 6.1 0.00 0.00 0.00 76 1004.7
20260506011106 79 146 2.6 8.7 0.00 0.00 0.00 76 1004.8
20260506011005 80 147 2.6 8.7 0.00 0.00 0.00 76 1004.7
20260506010806 80 146 3.5 8.7 0.00 0.00 0.00 75 1004.8
20260506010505 80 146 3.5 8.7 0.00 0.00 0.00 75 1004.6
20260506010405 80 145 4.3 8.7 0.00 0.00 0.00 75 1004.7
20260506010306 80 146 4.3 8.7 0.00 0.00 0.00 74 1004.6
20260506010205 80 146 4.3 8.7 0.00 0.00 0.00 74 1004.6
20260506010106 80 147 4.3 7.8 0.00 0.00 0.00 74 1004.6
20260506010006 80 148 5.2 10.4 0.00 0.00 0.00 74 1004.5
20260506005906 80 147 5.2 10.4 0.00 0.00 0.00 74 1004.5
20260506005805 80 149 5.2 10.4 0.00 0.00 0.00 74 1004.5
20260506005706 80 150 5.2 10.4 0.00 0.00 0.00 73 1004.5
20260506005406 81 153 5.2 10.4 0.00 0.00 0.00 73 1004.5
20260506005306 81 153 5.2 10.4 0.00 0.00 0.00 73 1004.5
20260506005205 81 155 5.2 10.4 0.00 0.00 0.00 73 1004.5
20260506005105 81 156 5.2 10.4 0.00 0.00 0.00 71 1004.4
20260506005006 81 155 5.2 10.4 0.00 0.00 0.00 71 1004.5
20260506004905 81 157 5.2 10.4 0.00 0.00 0.00 71 1004.4
20260506004806 81 157 5.2 10.4 0.00 0.00 0.00 71 1004.4
20260506004705 81 157 6.1 10.4 0.00 0.00 0.00 71 1004.4
20260506004606 81 156 6.1 10.4 0.00 0.00 0.00 71 1004.4
20260506004405 82 156 6.1 10.4 0.00 0.00 0.00 70 1004.4
20260506004306 82 157 6.1 10.4 0.00 0.00 0.00 70 1004.4
20260506004205 82 157 6.1 10.4 0.00 0.00 0.00 70 1004.5
20260506004105 82 157 6.1 13.9 0.00 0.00 0.00 70 1004.4
20260506003905 82 157 7.0 13.9 0.00 0.00 0.00 70 1004.4
20260506003806 82 157 7.0 13.9 0.00 0.00 0.00 69 1004.5
20260506003605 82 157 7.0 13.9 0.00 0.00 0.00 69 1004.4
20260506003505 82 158 7.0 13.9 0.00 0.00 0.00 69 1004.4
20260506003306 82 160 7.0 13.9 0.00 0.00 0.00 68 1004.5
20260506003206 82 160 7.0 13.9 0.00 0.00 0.00 68 1004.5
20260506003006 82 160 7.0 12.2 0.00 0.00 0.00 68 1004.5
20260506002905 82 159 7.0 12.2 0.00 0.00 0.00 68 1004.5
20260506002806 82 159 7.0 12.2 0.00 0.00 0.00 68 1004.5
20260506002605 82 160 7.8 12.2 0.00 0.00 0.00 68 1004.5
20260506002505 82 161 7.8 12.2 0.00 0.00 0.00 68 1004.5
20260506002405 83 160 7.8 12.2 0.00 0.00 0.00 68 1004.5
20260506002205 83 157 7.0 12.2 0.00 0.00 0.00 68 1004.6
20260506002105 83 158 7.0 12.2 0.00 0.00 0.00 68 1004.5
20260506001905 83 157 7.8 13.9 0.00 0.00 0.00 68 1004.5
20260506001806 83 157 7.8 13.9 0.00 0.00 0.00 68 1004.5
20260506001705 83 157 7.8 13.9 0.00 0.00 0.00 68 1004.5
20260506001505 83 155 7.8 13.9 0.00 0.00 0.00 68 1004.5
20260506001405 83 155 7.8 13.9 0.00 0.00 0.00 68 1004.5
20260506001305 83 155 7.8 13.9 0.00 0.00 0.00 68 1004.5
20260506001206 83 158 7.8 13.9 0.00 0.00 0.00 68 1004.5
20260506001105 83 158 7.8 13.9 0.00 0.00 0.00 67 1004.5
20260506001006 83 159 7.8 13.9 0.00 0.00 0.00 67 1004.5
20260506000905 83 159 7.8 13.9 0.00 0.00 0.00 67 1004.5
20260506000806 83 159 7.8 13.0 0.00 0.00 0.00 67 1004.5
20260506000705 83 160 7.8 13.0 0.00 0.00 0.00 67 1004.5
20260506000606 83 160 7.8 13.0 0.00 0.00 0.00 67 1004.6
20260506000505 83 158 7.0 12.2 0.00 0.00 0.00 67 1004.6
20260506000405 83 159 7.0 12.2 0.00 0.00 0.00 67 1004.6
20260506000305 83 159 7.0 12.2 0.00 0.00 0.00 67 1004.6
20260506000105 83 155 7.0 11.3 0.00 0.00 0.00 67 1004.5
20260506000005 83 154 6.1 11.3 0.00 0.00 0.00 68 1004.6
20260505235905 83 155 6.1 10.4 0.00 0.00 0.00 68 1004.5
20260505235806 83 156 6.1 10.4 0.00 0.00 0.00 68 1004.5
20260505235705 83 155 6.1 10.4 0.00 0.00 0.00 68 1004.5
20260505235605 83 154 6.1 10.4 0.00 0.00 0.00 68 1004.5
20260505235505 83 154 6.1 10.4 0.00 0.00 0.00 68 1004.5
20260505235406 83 152 6.1 10.4 0.00 0.00 0.00 68 1004.5
20260505235305 83 152 6.1 10.4 0.00 0.00 0.00 68 1004.5
20260505235206 83 153 6.1 10.4 0.00 0.00 0.00 68 1004.5
20260505235105 83 154 7.0 10.4 0.00 0.00 0.00 68 1004.5
20260505234806 83 152 7.0 13.0 0.00 0.00 0.00 68 1004.6
20260505234705 83 152 7.0 13.0 0.00 0.00 0.00 68 1004.6
20260505234605 83 156 7.0 13.0 0.00 0.00 0.00 68 1004.5
20260505234505 83 159 7.0 13.0 0.00 0.00 0.00 68 1004.5
20260505234405 83 160 7.0 13.0 0.00 0.00 0.00 68 1004.5
20260505234305 83 160 7.0 13.0 0.00 0.00 0.00 68 1004.5
20260505234205 83 160 7.0 13.0 0.00 0.00 0.00 68 1004.5
20260505234105 83 160 7.0 13.0 0.00 0.00 0.00 68 1004.5
20260505234005 83 160 7.0 11.3 0.00 0.00 0.00 68 1004.5
20260505233906 83 159 7.0 11.3 0.00 0.00 0.00 68 1004.5
20260505233806 84 159 7.0 11.3 0.00 0.00 0.00 67 1004.5
20260505233705 84 161 6.1 11.3 0.00 0.00 0.00 67 1004.5
20260505233505 84 158 6.1 11.3 0.00 0.00 0.00 68 1004.5
20260505233406 84 157 6.1 11.3 0.00 0.00 0.00 67 1004.5
20260505233305 84 157 6.1 11.3 0.00 0.00 0.00 68 1004.5
20260505233206 84 155 5.2 10.4 0.00 0.00 0.00 67 1004.5
20260505233105 84 155 6.1 10.4 0.00 0.00 0.00 67 1004.5
20260505233006 84 158 6.1 10.4 0.00 0.00 0.00 67 1004.4
20260505232806 84 159 6.1 11.3 0.00 0.00 0.00 67 1004.5
20260505232706 84 158 6.1 11.3 0.00 0.00 0.00 67 1004.5
20260505232606 84 157 6.1 11.3 0.00 0.00 0.00 67 1004.5
20260505232505 84 159 7.0 13.0 0.00 0.00 0.00 67 1004.5
20260505232406 84 159 7.0 13.0 0.00 0.00 0.00 67 1004.5
20260505232305 84 159 7.0 13.9 0.00 0.00 0.00 67 1004.5
20260505232205 84 158 7.0 13.9 0.00 0.00 0.00 67 1004.5
20260505232105 84 158 7.0 13.9 0.00 0.00 0.00 66 1004.4
20260505232005 84 156 7.0 13.9 0.00 0.00 0.00 66 1004.4
20260505231605 84 156 7.0 13.9 0.00 0.00 0.00 66 1004.3
20260505231506 84 156 7.0 13.9 0.00 0.00 0.00 67 1004.2
20260505231405 84 157 6.1 13.9 0.00 0.00 0.00 67 1004.2
20260505231305 84 159 6.1 12.2 0.00 0.00 0.00 67 1004.2
20260505231205 84 162 7.0 11.3 0.00 0.00 0.00 67 1004.2
20260505231105 84 164 7.0 11.3 0.00 0.00 0.00 67 1004.2
20260505231005 84 165 7.0 10.4 0.00 0.00 0.00 67 1004.2
20260505230905 84 166 7.0 10.4 0.00 0.00 0.00 67 1004.2
20260505230805 84 165 7.0 11.3 0.00 0.00 0.00 67 1004.2
20260505230705 84 164 7.0 12.2 0.00 0.00 0.00 67 1004.2
20260505230605 84 163 7.0 12.2 0.00 0.00 0.00 67 1004.2
20260505230505 84 162 7.8 12.2 0.00 0.00 0.00 68 1004.2
20260505230406 84 161 7.8 12.2 0.00 0.00 0.00 67 1004.2
20260505230305 84 158 7.8 13.0 0.00 0.00 0.00 67 1004.2
20260505230006 84 153 7.0 13.0 0.00 0.00 0.00 67 1004.2
20260505225905 84 151 7.8 13.0 0.00 0.00 0.00 67 1004.1
20260505225805 84 150 7.8 13.9 0.00 0.00 0.00 67 1004.1
20260505225705 84 151 7.0 13.9 0.00 0.00 0.00 67 1004.1
20260505225606 84 150 7.8 13.9 0.00 0.00 0.00 66 1004.1
20260505225405 84 147 7.8 13.9 0.00 0.00 0.00 66 1004.1
20260505225306 85 147 7.8 13.9 0.00 0.00 0.00 66 1004.1
20260505225205 85 146 7.8 13.9 0.00 0.00 0.00 66 1004.1
20260505225105 85 146 7.8 13.9 0.00 0.00 0.00 65 1004.1
20260505225005 85 148 7.8 13.9 0.00 0.00 0.00 65 1004.1
20260505224905 85 149 7.8 13.9 0.00 0.00 0.00 65 1004.2
20260505224805 85 151 7.8 13.9 0.00 0.00 0.00 65 1004.2
20260505224705 85 153 7.8 13.9 0.00 0.00 0.00 65 1004.2
20260505224606 85 154 7.8 13.9 0.00 0.00 0.00 65 1004.2
20260505224505 85 156 7.0 13.9 0.00 0.00 0.00 65 1004.2
20260505224407 86 157 7.0 12.2 0.00 0.00 0.00 65 1004.2
20260505224305 86 158 7.0 12.2 0.00 0.00 0.00 65 1004.2
20260505224206 86 161 7.8 12.2 0.00 0.00 0.00 65 1004.3
20260505224105 86 163 7.8 12.2 0.00 0.00 0.00 65 1004.3
20260505224006 86 162 7.0 12.2 0.00 0.00 0.00 65 1004.3
20260505223906 86 161 7.0 12.2 0.00 0.00 0.00 65 1004.3
20260505223805 86 162 7.0 11.3 0.00 0.00 0.00 65 1004.3
20260505223605 86 160 7.0 13.9 0.00 0.00 0.00 65 1004.3
20260505223506 86 157 7.8 13.9 0.00 0.00 0.00 65 1004.3
20260505223405 86 158 7.8 13.9 0.00 0.00 0.00 65 1004.4
20260505223306 86 158 7.8 13.9 0.00 0.00 0.00 65 1004.3
20260505223206 86 157 7.0 13.9 0.00 0.00 0.00 65 1004.3
20260505223105 86 156 7.0 13.9 0.00 0.00 0.00 65 1004.3
20260505222705 86 162 7.0 13.9 0.00 0.00 0.00 65 1004.2
20260505222606 86 163 7.0 13.0 0.00 0.00 0.00 65 1004.2
20260505222505 86 167 7.0 13.0 0.00 0.00 0.00 64 1004.2
20260505222306 86 172 7.0 12.2 0.00 0.00 0.00 65 1004.1
20260505222205 86 174 7.0 12.2 0.00 0.00 0.00 64 1004.1
20260505222105 86 172 7.0 12.2 0.00 0.00 0.00 64 1004.2
20260505222005 86 170 7.0 12.2 0.00 0.00 0.00 63 1004.2
20260505221905 86 168 7.0 12.2 0.00 0.00 0.00 63 1004.1
20260505221805 86 169 7.0 12.2 0.00 0.00 0.00 63 1004.1
20260505221605 87 167 7.0 13.0 0.00 0.00 0.00 63 1004.1
20260505221506 87 166 6.1 13.0 0.00 0.00 0.00 63 1004.1
20260505221405 87 167 7.0 13.0 0.00 0.00 0.00 64 1004.0
20260505221305 87 168 7.0 13.0 0.00 0.00 0.00 64 1004.0
20260505221205 86 167 7.0 13.0 0.00 0.00 0.00 64 1004.0
20260505221105 86 169 7.0 13.0 0.00 0.00 0.00 64 1004.0
20260505221005 86 173 7.0 13.0 0.00 0.00 0.00 64 1004.0
20260505220905 86 177 7.0 13.0 0.00 0.00 0.00 63 1004.0
20260505220805 87 176 7.0 13.0 0.00 0.00 0.00 63 1004.0
20260505220705 87 181 7.0 13.0 0.00 0.00 0.00 62 1004.0
20260505220605 87 183 7.0 12.2 0.00 0.00 0.00 61 1004.0
20260505220506 87 184 7.0 12.2 0.00 0.00 0.00 60 1004.1
20260505220405 87 184 7.0 12.2 0.00 0.00 0.00 60 1004.1
20260505220306 87 184 7.0 11.3 0.00 0.00 0.00 60 1004.1
20260505220105 87 185 7.0 12.2 0.00 0.00 0.00 60 1004.0
20260505220006 87 185 7.0 12.2 0.00 0.00 0.00 60 1004.1
20260505215805 87 186 6.1 12.2 0.00 0.00 0.00 60 1004.1
20260505215605 87 187 6.1 12.2 0.00 0.00 0.00 60 1004.2
20260505215505 87 188 6.1 12.2 0.00 0.00 0.00 60 1004.2
20260505215406 87 190 6.1 12.2 0.00 0.00 0.00 60 1004.2
20260505215306 87 193 6.1 12.2 0.00 0.00 0.00 60 1004.2
20260505215005 87 192 7.0 10.4 0.00 0.00 0.00 59 1004.2
20260505214907 87 190 7.0 10.4 0.00 0.00 0.00 59 1004.2
20260505214806 88 189 7.0 10.4 0.00 0.00 0.00 59 1004.2
20260505214705 88 188 7.0 10.4 0.00 0.00 0.00 59 1004.3
20260505214606 88 188 7.0 11.3 0.00 0.00 0.00 60 1004.3
20260505214505 88 188 7.0 11.3 0.00 0.00 0.00 60 1004.4
20260505214405 88 185 7.0 11.3 0.00 0.00 0.00 60 1004.4
20260505214305 88 183 7.0 11.3 0.00 0.00 0.00 60 1004.5
20260505214205 88 179 7.0 11.3 0.00 0.00 0.00 60 1004.5
20260505214105 88 181 7.0 11.3 0.00 0.00 0.00 60 1004.5
20260505214006 88 177 7.0 11.3 0.00 0.00 0.00 59 1004.5
20260505213905 88 179 6.1 11.3 0.00 0.00 0.00 59 1004.5
20260505213805 88 179 6.1 11.3 0.00 0.00 0.00 59 1004.5
20260505213605 88 174 6.1 10.4 0.00 0.00 0.00 61 1004.5
20260505213505 88 171 6.1 10.4 0.00 0.00 0.00 60 1004.4
20260505213405 88 169 6.1 10.4 0.00 0.00 0.00 60 1004.5
20260505213305 88 169 6.1 10.4 0.00 0.00 0.00 60 1004.5
20260505213205 87 168 6.1 10.4 0.00 0.00 0.00 60 1004.5
20260505213005 87 166 6.1 10.4 0.00 0.00 0.00 60 1004.5
20260505212905 87 165 6.1 10.4 0.00 0.00 0.00 61 1004.5
20260505212805 87 168 6.1 10.4 0.00 0.00 0.00 60 1004.5
20260505212705 87 173 6.1 11.3 0.00 0.00 0.00 60 1004.5
20260505212606 87 176 7.0 11.3 0.00 0.00 0.00 60 1004.5
20260505212406 87 184 7.0 11.3 0.00 0.00 0.00 60 1004.5
20260505212306 87 188 7.0 14.8 0.00 0.00 0.00 60 1004.5
20260505212206 87 191 7.8 14.8 0.00 0.00 0.00 60 1004.5
20260505212105 87 192 7.8 14.8 0.00 0.00 0.00 60 1004.6
20260505212005 87 192 7.8 14.8 0.00 0.00 0.00 60 1004.6
20260505211905 87 187 7.8 14.8 0.00 0.00 0.00 61 1004.6
20260505211805 87 184 8.7 14.8 0.00 0.00 0.00 60 1004.7
20260505211705 87 179 8.7 14.8 0.00 0.00 0.00 60 1004.7
20260505211605 87 177 8.7 14.8 0.00 0.00 0.00 61 1004.7
20260505211405 87 176 7.8 14.8 0.00 0.00 0.00 59 1004.6
20260505211307 87 173 7.8 14.8 0.00 0.00 0.00 60 1004.7
20260505211205 87 172 7.0 14.8 0.00 0.00 0.00 61 1004.7
20260505211105 87 171 7.8 14.8 0.00 0.00 0.00 61 1004.7
20260505211005 87 174 7.0 14.8 0.00 0.00 0.00 60 1004.7
20260505210905 87 178 7.0 14.8 0.00 0.00 0.00 59 1004.6
20260505210805 87 181 6.1 14.8 0.00 0.00 0.00 59 1004.7
20260505210605 88 184 6.1 13.0 0.00 0.00 0.00 59 1004.8
20260505210305 88 179 7.0 13.0 0.00 0.00 0.00 61 1004.8
20260505210205 88 178 7.0 13.9 0.00 0.00 0.00 60 1004.8
20260505210106 88 179 7.0 13.9 0.00 0.00 0.00 61 1004.8
20260505210005 87 178 7.0 13.9 0.00 0.00 0.00 61 1004.8
20260505205905 87 176 7.8 13.9 0.00 0.00 0.00 61 1004.8
20260505205805 87 175 7.8 13.9 0.00 0.00 0.00 61 1004.8
20260505205705 87 173 7.8 13.9 0.00 0.00 0.00 61 1004.8
20260505205605 86 171 8.7 13.9 0.00 0.00 0.00 61 1004.8
20260505205505 86 171 8.7 13.9 0.00 0.00 0.00 61 1004.8
20260505205405 87 171 8.7 13.9 0.00 0.00 0.00 60 1004.9
20260505205205 87 176 7.8 13.9 0.00 0.00 0.00 60 1004.9
20260505205104 87 175 7.8 13.0 0.00 0.00 0.00 59 1004.9
20260505205005 87 177 8.7 16.5 0.00 0.00 0.00 59 1004.9
20260505204905 87 179 7.8 16.5 0.00 0.00 0.00 59 1004.9
20260505204805 87 181 7.8 16.5 0.00 0.00 0.00 59 1004.8
20260505204705 87 184 7.8 16.5 0.00 0.00 0.00 59 1004.8
20260505204605 87 189 7.8 16.5 0.00 0.00 0.00 59 1004.9
20260505204505 88 193 7.8 16.5 0.00 0.00 0.00 60 1004.9
20260505204305 88 198 7.8 16.5 0.00 0.00 0.00 60 1004.9
20260505204205 88 198 8.7 16.5 0.00 0.00 0.00 60 1005.0
20260505204105 88 199 8.7 16.5 0.00 0.00 0.00 60 1005.0
20260505204005 87 194 8.7 16.5 0.00 0.00 0.00 59 1004.9
20260505203805 87 193 8.7 16.5 0.00 0.00 0.00 59 1005.0
20260505203704 87 193 8.7 16.5 0.00 0.00 0.00 59 1005.0
20260505203505 87 187 8.7 16.5 0.00 0.00 0.00 60 1005.0
20260505203405 87 186 8.7 16.5 0.00 0.00 0.00 60 1005.0
20260505203305 87 186 8.7 16.5 0.00 0.00 0.00 60 1005.0
20260505203206 87 183 8.7 16.5 0.00 0.00 0.00 60 1004.9
20260505203105 87 182 8.7 16.5 0.00 0.00 0.00 60 1004.9
20260505203006 87 186 8.7 13.9 0.00 0.00 0.00 60 1005.0
20260505202904 87 186 8.7 13.9 0.00 0.00 0.00 59 1005.0
20260505202805 87 185 7.8 13.9 0.00 0.00 0.00 59 1005.1
20260505202705 88 183 7.8 13.9 0.00 0.00 0.00 59 1005.0
20260505202605 88 183 7.8 13.9 0.00 0.00 0.00 59 1005.1
20260505202505 88 184 7.8 13.9 0.00 0.00 0.00 59 1005.1
20260505202405 88 181 7.8 13.9 0.00 0.00 0.00 59 1005.1
20260505202306 88 177 7.8 13.9 0.00 0.00 0.00 59 1005.2
20260505202206 88 176 7.8 13.9 0.00 0.00 0.00 59 1005.2
20260505202104 88 175 7.8 13.9 0.00 0.00 0.00 59 1005.2
20260505201905 88 174 7.0 13.9 0.00 0.00 0.00 60 1005.0
20260505201805 88 177 7.0 13.9 0.00 0.00 0.00 60 1005.0
20260505201705 88 181 7.0 13.9 0.00 0.00 0.00 60 1005.0
20260505201606 88 179 7.8 13.9 0.00 0.00 0.00 60 1005.0
20260505201505 88 179 7.8 13.9 0.00 0.00 0.00 59 1005.1
20260505201405 88 184 7.8 13.9 0.00 0.00 0.00 59 1005.1
20260505201305 88 186 7.8 13.9 0.00 0.00 0.00 59 1005.1
20260505201205 88 186 7.8 13.9 0.00 0.00 0.00 60 1005.1
20260505201105 88 187 7.8 13.0 0.00 0.00 0.00 60 1005.1
20260505201005 87 188 7.8 13.0 0.00 0.00 0.00 61 1005.1
20260505200905 87 185 7.8 13.0 0.00 0.00 0.00 61 1005.2
20260505200805 87 182 8.7 13.9 0.00 0.00 0.00 60 1005.2
20260505200705 87 178 8.7 14.8 0.00 0.00 0.00 60 1005.3
20260505200605 87 178 8.7 14.8 0.00 0.00 0.00 59 1005.3
20260505200505 87 179 8.7 14.8 0.00 0.00 0.00 61 1005.3
20260505200405 87 176 8.7 14.8 0.00 0.00 0.00 61 1005.4
20260505200305 86 176 9.6 14.8 0.00 0.00 0.00 60 1005.3
20260505200105 86 177 9.6 14.8 0.00 0.00 0.00 61 1005.4
20260505195805 87 174 8.7 14.8 0.00 0.00 0.00 62 1005.4
20260505195705 86 174 9.6 13.9 0.00 0.00 0.00 62 1005.3
20260505195605 86 175 9.6 13.9 0.00 0.00 0.00 62 1005.3
20260505195505 86 173 9.6 13.9 0.00 0.00 0.00 62 1005.4
20260505195405 86 174 9.6 14.8 0.00 0.00 0.00 62 1005.3
20260505195305 86 173 8.7 14.8 0.00 0.00 0.00 62 1005.4
20260505195205 86 173 9.6 14.8 0.00 0.00 0.00 62 1005.3
20260505195105 86 171 9.6 14.8 0.00 0.00 0.00 62 1005.4
20260505195005 86 174 8.7 14.8 0.00 0.00 0.00 61 1005.3
20260505194906 86 177 8.7 14.8 0.00 0.00 0.00 61 1005.3
20260505194805 86 184 8.7 14.8 0.00 0.00 0.00 60 1005.3
20260505194705 86 187 7.8 14.8 0.00 0.00 0.00 62 1005.3
20260505194605 86 188 7.8 14.8 0.00 0.00 0.00 61 1005.3
20260505194505 86 189 7.0 14.8 0.00 0.00 0.00 60 1005.3
20260505194405 86 191 7.0 13.9 0.00 0.00 0.00 62 1005.4
20260505194305 86 193 7.0 12.2 0.00 0.00 0.00 61 1005.4
20260505194205 87 196 7.0 12.2 0.00 0.00 0.00 61 1005.4
20260505194104 87 198 7.0 12.2 0.00 0.00 0.00 61 1005.4
20260505194005 87 197 7.0 12.2 0.00 0.00 0.00 62 1005.5
20260505193905 87 195 7.0 12.2 0.00 0.00 0.00 62 1005.5
20260505193805 87 194 7.0 12.2 0.00 0.00 0.00 62 1005.5
20260505193705 87 196 7.0 12.2 0.00 0.00 0.00 62 1005.5
20260505193504 87 197 7.0 11.3 0.00 0.00 0.00 62 1005.5
20260505193405 87 196 7.0 11.3 0.00 0.00 0.00 62 1005.5
20260505193304 87 197 7.0 11.3 0.00 0.00 0.00 62 1005.6
20260505193205 87 199 7.0 12.2 0.00 0.00 0.00 62 1005.5
20260505193105 86 198 7.0 13.0 0.00 0.00 0.00 63 1005.5
20260505192905 86 194 7.0 13.9 0.00 0.00 0.00 62 1005.5
20260505192807 86 194 7.0 13.9 0.00 0.00 0.00 61 1005.5
20260505192605 87 188 7.0 13.9 0.00 0.00 0.00 63 1005.6
20260505192405 86 187 7.8 13.9 0.00 0.00 0.00 63 1005.6
20260505192306 86 185 7.8 13.9 0.00 0.00 0.00 62 1005.6
20260505192106 86 182 7.0 13.9 0.00 0.00 0.00 63 1005.7
20260505192005 86 184 7.0 13.0 0.00 0.00 0.00 63 1005.7
20260505191905 86 186 6.1 13.0 0.00 0.00 0.00 63 1005.7
20260505191805 86 184 6.1 13.0 0.00 0.00 0.00 62 1005.7
20260505191605 86 186 6.1 13.0 0.00 0.00 0.00 63 1005.8
20260505191306 86 177 6.1 12.2 0.00 0.00 0.00 64 1005.8
20260505191105 85 176 7.0 12.2 0.00 0.00 0.00 64 1005.9
20260505191005 85 178 7.0 12.2 0.00 0.00 0.00 67 1005.9
20260505190906 84 178 7.0 14.8 0.00 0.00 0.00 66 1005.9
20260505190805 84 176 7.0 15.6 0.00 0.00 0.00 65 1005.9
20260505190605 84 177 7.0 15.6 0.00 0.00 0.00 64 1005.9
20260505190305 85 191 7.0 15.6 0.00 0.00 0.00 63 1005.9
20260505190104 85 188 7.8 15.6 0.00 0.00 0.00 64 1006.0
20260505190005 85 186 7.8 15.6 0.00 0.00 0.00 63 1005.8
20260505185905 85 186 7.8 15.6 0.00 0.00 0.00 66 1006.0
20260505185805 85 188 8.7 12.2 0.00 0.00 0.00 65 1005.9
20260505185704 84 187 8.7 13.0 0.00 0.00 0.00 65 1006.0
20260505185605 84 187 8.7 13.0 0.00 0.00 0.00 66 1006.0
20260505185504 84 188 8.7 14.8 0.00 0.00 0.00 66 1006.0
20260505185305 84 185 8.7 15.6 0.00 0.00 0.00 65 1006.0
20260505185204 84 187 8.7 15.6 0.00 0.00 0.00 64 1006.0
20260505185105 84 190 8.7 15.6 0.00 0.00 0.00 65 1006.0
20260505185005 84 189 8.7 15.6 0.00 0.00 0.00 64 1006.0
20260505184905 84 192 8.7 15.6 0.00 0.00 0.00 64 1006.1
20260505184705 84 197 8.7 15.6 0.00 0.00 0.00 65 1006.2
20260505184605 83 198 8.7 15.6 0.00 0.00 0.00 65 1006.2
20260505184504 84 198 8.7 15.6 0.00 0.00 0.00 65 1006.2
20260505184405 84 199 8.7 13.9 0.00 0.00 0.00 65 1006.3
20260505184306 84 197 8.7 13.9 0.00 0.00 0.00 65 1006.2
20260505184206 84 197 8.7 14.8 0.00 0.00 0.00 65 1006.3
20260505184105 84 196 8.7 14.8 0.00 0.00 0.00 65 1006.2
20260505184005 83 196 8.7 14.8 0.00 0.00 0.00 66 1006.2
20260505183905 83 193 8.7 14.8 0.00 0.00 0.00 65 1006.3
20260505183805 84 189 9.6 14.8 0.00 0.00 0.00 65 1006.3
20260505183706 84 186 9.6 14.8 0.00 0.00 0.00 65 1006.3
20260505183605 84 189 8.7 18.2 0.00 0.00 0.00 66 1006.2
20260505183505 84 192 8.7 18.2 0.00 0.00 0.00 66 1006.3
20260505183405 83 194 8.7 18.2 0.00 0.00 0.00 66 1006.2
20260505183305 83 196 8.7 18.2 0.00 0.00 0.00 66 1006.3
20260505183206 83 193 8.7 18.2 0.00 0.00 0.00 66 1006.3
20260505183106 83 193 8.7 18.2 0.00 0.00 0.00 66 1006.3
20260505183005 83 194 8.7 18.2 0.00 0.00 0.00 67 1006.4
20260505182905 83 195 7.8 18.2 0.00 0.00 0.00 66 1006.4
20260505182805 83 199 7.8 18.2 0.00 0.00 0.00 67 1006.5
20260505182605 83 195 7.8 13.9 0.00 0.00 0.00 65 1006.6
20260505182504 83 192 7.8 13.9 0.00 0.00 0.00 66 1006.7
20260505182205 83 188 8.7 14.8 0.00 0.00 0.00 66 1006.6
20260505182105 83 187 8.7 14.8 0.00 0.00 0.00 66 1006.6
20260505182005 83 188 8.7 14.8 0.00 0.00 0.00 66 1006.6
20260505181904 83 190 8.7 14.8 0.00 0.00 0.00 66 1006.6
20260505181806 82 190 8.7 14.8 0.00 0.00 0.00 66 1006.6
20260505181704 82 191 8.7 14.8 0.00 0.00 0.00 66 1006.6
20260505181605 82 192 8.7 14.8 0.00 0.00 0.00 66 1006.6
20260505181505 82 194 8.7 14.8 0.00 0.00 0.00 66 1006.7
20260505181304 82 199 8.7 14.8 0.00 0.00 0.00 68 1006.7
20260505181205 82 198 8.7 14.8 0.00 0.00 0.00 67 1006.7
20260505181104 82 201 8.7 14.8 0.00 0.00 0.00 68 1006.7
20260505181005 82 200 8.7 17.4 0.00 0.00 0.00 67 1006.8
20260505180904 82 199 8.7 17.4 0.00 0.00 0.00 67 1006.8
20260505180806 82 198 8.7 17.4 0.00 0.00 0.00 68 1006.7
20260505180604 82 198 8.7 17.4 0.00 0.00 0.00 68 1006.8
20260505180505 82 200 9.6 17.4 0.00 0.00 0.00 68 1006.7
20260505180405 82 201 9.6 17.4 0.00 0.00 0.00 68 1006.7
20260505180305 82 200 10.4 17.4 0.00 0.00 0.00 67 1006.7
20260505180205 82 202 9.6 17.4 0.00 0.00 0.00 67 1006.7
20260505180105 82 202 9.6 17.4 0.00 0.00 0.00 66 1006.7
20260505180005 82 204 8.7 17.4 0.00 0.00 0.00 68 1006.6
20260505175904 82 204 8.7 17.4 0.00 0.00 0.00 68 1006.6
20260505175805 82 203 8.7 17.4 0.00 0.00 0.00 67 1006.7
20260505175705 82 203 8.7 17.4 0.00 0.00 0.00 67 1006.7
20260505175605 82 201 8.7 17.4 0.00 0.00 0.00 67 1006.7
20260505175505 82 197 8.7 17.4 0.00 0.00 0.00 67 1006.7
20260505175405 83 197 7.8 17.4 0.00 0.00 0.00 67 1006.8
20260505175305 83 195 7.8 17.4 0.00 0.00 0.00 67 1006.8
20260505175206 82 192 7.8 17.4 0.00 0.00 0.00 69 1006.7
20260505175104 82 190 7.8 17.4 0.00 0.00 0.00 70 1006.8
20260505175005 82 189 8.7 17.4 0.00 0.00 0.00 69 1006.8
20260505174905 81 191 8.7 17.4 0.00 0.00 0.00 68 1006.8
20260505174805 81 193 8.7 17.4 0.00 0.00 0.00 67 1006.8
20260505174705 82 195 8.7 17.4 0.00 0.00 0.00 69 1006.9
20260505174605 81 195 8.7 17.4 0.00 0.00 0.00 69 1006.8
20260505174504 81 194 8.7 17.4 0.00 0.00 0.00 68 1006.9
20260505174405 81 193 8.7 16.5 0.00 0.00 0.00 69 1006.9
20260505174305 81 193 9.6 16.5 0.00 0.00 0.00 68 1006.9
20260505174205 81 194 9.6 16.5 0.00 0.00 0.00 68 1007.0
20260505174005 81 197 9.6 17.4 0.00 0.00 0.00 69 1007.0
20260505173904 81 197 9.6 17.4 0.00 0.00 0.00 69 1007.0
20260505173705 81 196 9.6 17.4 0.00 0.00 0.00 69 1007.0
20260505173605 81 197 9.6 17.4 0.00 0.00 0.00 68 1007.0
20260505173505 81 198 9.6 17.4 0.00 0.00 0.00 68 1007.0
20260505173405 81 198 9.6 17.4 0.00 0.00 0.00 68 1007.1
20260505173304 81 198 8.7 17.4 0.00 0.00 0.00 69 1007.1
20260505173205 81 200 8.7 17.4 0.00 0.00 0.00 70 1007.1
20260505173104 81 203 8.7 17.4 0.00 0.00 0.00 69 1007.1
20260505173005 81 204 8.7 14.8 0.00 0.00 0.00 70 1007.1
20260505172905 81 203 8.7 14.8 0.00 0.00 0.00 69 1007.1
20260505172805 81 199 9.6 16.5 0.00 0.00 0.00 70 1007.1
20260505172705 81 200 9.6 17.4 0.00 0.00 0.00 69 1007.1
20260505172505 81 202 9.6 17.4 0.00 0.00 0.00 70 1007.1
20260505172405 81 201 9.6 17.4 0.00 0.00 0.00 70 1007.2
20260505172306 81 203 10.4 17.4 0.00 0.00 0.00 70 1007.2
20260505172205 80 203 10.4 17.4 0.00 0.00 0.00 70 1007.1
20260505172105 80 201 10.4 17.4 0.00 0.00 0.00 70 1007.1
20260505171805 81 204 9.6 20.0 0.00 0.00 0.00 69 1007.0
20260505171705 81 203 9.6 20.0 0.00 0.00 0.00 70 1007.1
20260505171605 81 206 9.6 20.0 0.00 0.00 0.00 69 1007.0
20260505171504 81 206 8.7 20.0 0.00 0.00 0.00 70 1007.0
20260505171405 81 208 8.7 20.0 0.00 0.00 0.00 70 1007.0
20260505171304 80 207 8.7 20.0 0.00 0.00 0.00 70 1007.0
20260505171206 80 206 8.7 20.0 0.00 0.00 0.00 70 1007.0
20260505171104 80 206 8.7 20.0 0.00 0.00 0.00 70 1006.9
20260505171005 80 206 9.6 16.5 0.00 0.00 0.00 70 1006.9
20260505170904 80 205 9.6 16.5 0.00 0.00 0.00 70 1006.9
20260505170805 80 205 9.6 16.5 0.00 0.00 0.00 70 1006.9
20260505170704 80 206 9.6 16.5 0.00 0.00 0.00 70 1006.9
20260505170605 80 203 9.6 16.5 0.00 0.00 0.00 70 1006.9
20260505170504 80 202 9.6 16.5 0.00 0.00 0.00 69 1006.9
20260505170405 80 201 9.6 16.5 0.00 0.00 0.00 69 1006.9
20260505170305 80 201 9.6 16.5 0.00 0.00 0.00 70 1006.9
20260505170205 80 200 9.6 16.5 0.00 0.00 0.00 71 1006.9
20260505170105 80 200 9.6 16.5 0.00 0.00 0.00 71 1006.9
20260505165905 80 198 9.6 16.5 0.00 0.00 0.00 71 1007.0
20260505165806 80 198 9.6 16.5 0.00 0.00 0.00 71 1007.0
20260505165704 80 197 9.6 16.5 0.00 0.00 0.00 71 1007.0
20260505165605 79 195 9.6 16.5 0.00 0.00 0.00 71 1007.0
20260505165505 80 196 8.7 16.5 0.00 0.00 0.00 71 1007.0